Flag for U.S.A. Weather past 2 weeks in Louisville, Kentucky, U.S.A.

Now
48 °F

Overcast.


Feels Like: 46 °F
Forecast: 44 / 53 °F
Wind: 5 mph from Southeast

Location: Standiford Field

Current Time: Dec 27, 2014 at 4:40:49 AM

Latest Report: Dec 27, 2014 at 3:56 AM


Visibility: 10 mi

Pressure: 30.19 "Hg

Humidity: 61%

Dew point: 35 °F

Location of LouisvilleLocation

Historic Weather in Louisville — Graph

°F

Louisville temperature yesterday

Maximum temperature yesterday: 57 °F (at 2:56 PM)
Minimum temperature yesterday: 33 °F (at 1:56 AM)
Average temperature yesterday: 45 °F

Past Weeks' High & Low Weather Summary

 TemperatureHumidityPressure
High58 °F (Dec 24, 12:56 AM)97% (Dec 23, 7:56 PM)30.41 "Hg (Dec 23, 7:56 PM)
Low26 °F (Dec 12, 7:56 AM)46% (Dec 26, 2:56 PM)29.44 "Hg (Dec 24, 11:59 AM)
Average41 °F76%30.10 "Hg
* Reported Dec 12 2:56 AM — Dec 27 2:56 AM, Louisville, Weather by CustomWeather, © 2014

Note: Actual official high and low records may vary slightly from our data, if they occured in-between our weather recording intervals... More about our weather records

Advertising

Louisville weather history for previous 24 hours

 ConditionsComfort  
Time TempWeatherWind HumidityBarometerVisibility
2:56 AM
Dec 27
49 °FPassing clouds.5 mph57%30.19 "Hg10 mi
1:56 AM49 °FPassing clouds.5 mph55%30.18 "Hg10 mi
12:56 AM51 °FMostly cloudy.7 mph48%30.18 "Hg10 mi
11:56 PM
Dec 26
50 °FOvercast.No wind54%30.19 "Hg10 mi
10:56 PM48 °FOvercast.10 mph63%30.17 "Hg10 mi
9:56 PM48 °FPartly cloudy.3 mph59%30.18 "Hg10 mi
8:56 PM49 °FPassing clouds.7 mph59%30.17 "Hg10 mi
7:56 PM48 °FMostly cloudy.7 mph61%30.18 "Hg10 mi
6:56 PM51 °FMostly cloudy.9 mph56%30.18 "Hg10 mi
5:56 PM52 °FMostly cloudy.12 mph57%30.18 "Hg10 mi
4:56 PM54 °FBroken clouds.8 mph53%30.18 "Hg10 mi
3:56 PM56 °FBroken clouds.8 mph49%30.18 "Hg10 mi
2:56 PM57 °FScattered clouds.13 mph46%30.19 "Hg10 mi
1:56 PM56 °FPassing clouds.13 mph47%30.19 "Hg10 mi
12:56 PM54 °FPassing clouds.10 mph53%30.22 "Hg10 mi
11:56 AM51 °FPassing clouds.12 mph59%30.25 "Hg10 mi
10:56 AM47 °FScattered clouds.12 mph69%30.27 "Hg10 mi
9:56 AM43 °FPassing clouds.9 mph79%30.27 "Hg10 mi
8:56 AM35 °FPassing clouds.7 mph88%30.26 "Hg9 mi
7:56 AM33 °FPassing clouds.7 mph92%30.25 "Hg10 mi
6:56 AM33 °FPassing clouds.7 mph88%30.25 "Hg10 mi
5:56 AM33 °FPassing clouds.5 mph88%30.24 "Hg10 mi
4:56 AM35 °FClear.6 mph85%30.23 "Hg10 mi
Weather by CustomWeather, © 2014

See weather overviewHow to use our weather pages